#timestamp,LO_Frequency,Hit,StdDev 
1512259215.6,286046998.1,N
1512259235.5,286046998.6,N
1512259255.3,286047000.5,N
1512259275.1,286047001.0,N
1512259295.9,286047000.7,N
1512259315.7,286047000.7,N
1512259335.5,286046998.4,N
1512259355.4,286046998.3,N
1512259375.2,286047000.5,N
1512259395.1,286046999.9,N
1512259396.0,286046999.9,N
1512259415.8,286046998.6,N
1512259435.6,286047000.7,N
1512259455.5,286047000.6,N
1512259475.3,286046998.6,N
1512259495.1,286046999.0,N
1512259515.9,286047000.8,N
1512259535.7,286046998.5,N
1512259555.6,286047000.3,N
1512259575.4,286047002.7,N
1512259595.2,286047000.5,N
1512259615.1,286046998.6,N
1512259616.0,286046998.6,N
1512259635.8,286046999.8,N
1512259655.6,286046999.3,N
1512259675.5,286046999.3,N
1512259695.3,286047000.0,N
1512259715.2,286046998.9,N
1512259735.9,286046998.2,N
1512259755.7,286046999.0,N
1512259775.6,286047000.6,N
1512259795.4,286047000.5,N
1512259815.3,286046999.9,N
1512259835.1,286047000.3,N
1512259836.0,286047000.3,N
1512259855.8,286047000.2,N
1512259875.7,286047001.6,N
1512259895.5,286047001.7,N
1512259915.4,286047002.0,N
1512259935.2,286047000.5,N
1512259955.0,286047002.8,N
1512259955.9,286047002.8,N
1512259975.8,286047000.0,N
1512259995.6,286047000.1,N
1512260015.5,286047000.8,N
1512260035.3,286047000.4,N
1512260055.1,286047000.1,N
1512260075.9,286047001.2,N
1512260095.7,286047000.0,N
1512260115.6,286047001.0,N
1512260135.4,286047002.4,N
1512260155.2,286047002.6,N
1512260175.1,286046999.8,N
1512260176.0,286046999.8,N
1512260195.8,286046999.9,N
1512260215.6,286047002.7,N
1512260235.5,286047000.2,N
1512260255.3,286047000.7,N
1512260275.2,286047000.6,N
1512260295.9,286047000.0,N
1512260315.7,286047000.5,N
1512260335.6,286046999.3,N
1512260355.4,286046998.6,N
1512260375.3,286047000.4,N
1512260395.1,286046998.6,N
1512260396.0,286046998.6,N
1512260415.8,286046998.1,N
1512260435.7,286046998.6,N
1512260455.5,286047001.1,N
1512260475.3,286047001.1,N
1512260495.2,286047000.5,N
1512260515.0,286047000.4,N
1512260515.9,286047000.4,N
1512260535.8,286047000.3,N
1512260555.6,286047002.2,N
1512260575.4,286047000.5,N
1512260595.3,286047000.3,N
1512260615.1,286047000.4,N
1512260635.9,286047001.1,N
1512260655.7,286047000.1,N
1512260675.5,286047001.0,N
1512260695.4,286046999.9,N
1512260715.2,286047000.2,N
1512260735.0,286046998.2,N
1512260735.9,286046998.2,N
1512260755.8,286047001.1,N
1512260775.6,286046999.3,N
1512260795.5,286047000.9,N
1512260815.3,286047002.8,N
1512260835.1,286047002.4,N
1512260855.9,286047002.0,N
1512260875.7,286046999.8,N
1512260895.6,286047002.0,N
1512260915.4,286047002.8,N
1512260935.2,286047001.8,N
1512260955.1,286047002.7,N
1512260956.0,286047002.7,N
1512260975.8,286047001.4,N
1512260995.6,286047001.7,N
1512261015.5,286047002.4,N
1512261035.3,286047002.4,N
1512261055.2,286047002.8,N
1512261075.9,286047002.0,N
1512261095.8,286047001.6,N
1512261115.6,286047002.0,N
1512261135.5,286047004.0,Y
1512261155.3,286047000.5,P
1512261175.2,286046999.8,N
1512261195.9,286047002.5,P
1512261215.7,286047002.6,N
1512261235.6,286047003.5,Y
1512261255.4,286047002.4,P
1512261275.2,286047001.0,N
1512261295.1,286047000.0,N
1512261296.0,286047000.0,N
1512261315.8,286047002.7,N
1512261335.7,286047002.7,N
1512261355.5,286047002.7,N
1512261375.3,286046999.8,N
1512261395.2,286047000.2,N
1512261415.0,286047001.4,N
1512261415.9,286047001.4,N
1512261435.8,286047001.9,N
1512261485.6,286047002.4,E
1512261495.5,286046999.7,N
1512261515.4,286047001.1,P
1512261535.2,286046999.5,N
1512261555.1,286046997.1,Y
1512261556.0,286046997.1,P
1512261575.8,286046997.9,N
1512261595.6,286046997.1,N
1512261615.5,286046997.3,N
1512261635.3,286046996.1,Y
1512261655.2,286046999.6,P
1512261675.9,286046999.1,N
1512261695.7,286046996.8,P
1512261715.6,286046997.8,N
1512261735.4,286046997.4,N
1512261755.3,286046996.7,Y
1512261775.1,286046998.1,P
1512261776.0,286046998.1,P
1512261795.8,286047000.7,P
1512261815.7,286047000.2,N
1512261835.5,286047000.2,N
1512261855.3,286047001.0,N
1512261875.2,286047002.4,N
1512261895.0,286047002.5,N
1512261895.9,286047002.5,N
1512261915.8,286047002.5,N
1512261935.6,286047002.2,N
1512261955.4,286047002.2,N
1512261975.3,286047001.5,N
1512261995.1,286047003.9,N
1512262015.9,286047001.3,N
1512262035.7,286047001.9,N
1512262055.5,286047002.4,N
1512262075.4,286047004.4,N
1512262095.2,286047001.4,N
1512262115.0,286047002.7,N
1512262115.9,286047002.7,N
1512262135.8,286047002.8,N
1512262155.6,286047000.7,N
1512262175.5,286047000.1,N
1512262195.3,286047000.9,N
1512262215.1,286046998.6,N
1512262235.9,286046998.4,N
1512262255.7,286046998.1,N
1512262275.6,286046998.4,N
1512262295.4,286046999.1,N
1512262315.2,286046999.0,N
1512262335.1,286046998.3,N
1512262336.0,286046998.3,N
1512262355.8,286046997.2,N
1512262375.6,286046996.5,N
1512262395.5,286046995.2,N
1512262415.3,286046996.4,N
1512262435.2,286046995.5,N
1512262455.0,286046995.6,N
1512262455.9,286046995.6,N
1512262475.8,286046997.5,N
1512262495.6,286046997.7,N
1512262515.4,286046997.8,N
1512262535.3,286046995.2,N
1512262555.1,286046998.0,N
1512262575.8,286046995.6,N
1512262595.7,286046996.1,N
1512262615.5,286046997.9,N
1512262635.4,286046995.1,N
1512262655.2,286046997.0,N
1512262675.0,286046996.8,N
1512262675.9,286046996.8,N
1512262695.8,286046997.4,N
1512262715.6,286046997.3,N
1512262735.5,286046997.4,N
1512262755.3,286046996.9,N
1512262775.1,286046999.4,N
1512262795.9,286047001.1,N
